Weather in Pokrovka

Russia / Khabarovsk Krai     46°43′00″N   134°01′30″E
temp.,
°C
wind,
m/s
gust,
m/s
humid.,
%
clouds,
%
prec.,
mm/h
press.,
hPa
HPBL,
m
27 february, sat
sat2701:00−21ssw11910 0.0 103620
04:00−22s11930 0.0 103520
07:00−22sse22957 0.0 103620
10:00−18s24936 0.0 1035207
13:00−13sse368673 0.0 1033425
16:00−10s378587 0.0 1028517
19:00−10s31087100 0.0 1025373
22:00−9s51780100 0.0 1023585
28 february, sun
sun2801:00−8ssw71689100 0.0 1021538
04:00−5ssw61690100 0.0 1020612
07:00−3ssw41587100 0.1 1020756
10:00−2sw3890100 0.1 1021534
13:00−1wnw3786100 0.1 1022860
16:00−5wnw3879100 0.3 1024787
19:00−9nw2387100 0.0 102693
22:00−11wnw1285100 0.0 102861
1 march, mon
mon101:00−14nw1279100 0.0 103021
04:00−19w228367 0.0 103221
07:00−22w22870 0.0 103521
10:00−17w25782 0.0 1036343
13:00−12nnw255851 0.0 10361124
16:00−12nw356126 0.0 10351304
19:00−18n128125 0.0 103520
22:00−22sse018347 0.0 103520
2 march, tue
tue201:00−22ssw11790 0.0 103420
04:00−22s018026 0.0 103420
07:00−22ene0082100 0.0 103420
10:00−18n128099 0.0 1033158
13:00−14n348355 0.0 1032710
16:00−13n356845 0.0 1031925
19:00−19n22840 0.0 103120
22:00−23nnw11870 0.0 103220
3 march, wed
wed301:00−24nw01830 0.0 103120
04:00−24sse11830 0.0 103120
07:00−24sse22850 0.0 103020
10:00−19sse24811 0.0 1029204
13:00−14sse357674 0.0 1024409
16:00−10sse367587 0.0 1021534
19:00−11s31390100 0.1 1019649
22:00−10s31294100 0.3 1018567